Theta_e
293 293 293 293 293 293 292 291 293 291 292 290 291 290 290 290 290 290 290 291 291 291 292 292 292 292 292 293 293 294 293 294 295 296 297 297 298 300 307 309 308 309 310 313 315 316 317 318 319 320 322 323 324 326 326 325 325 326 329 332 335 339 340 340 341 342 343 344 345 345 345 345 345 344 344 344 345 345 345 344 344 345 345 345 344
292 292 292 292 292 292 292 291 291 291 290 290 290 290 289 289 290 290 290 290 290 291 292 291 292 292 292 292 293 293 293 293 293 293 293 295 296 298 304 307 306 308 309 310 312 314 316 317 318 319 320 321 322 323 325 325 325 325 325 327 331 334 336 338 340 341 342 343 344 344 344 344 344 343 344 344 344 345 345 345 344 345 345 344 344
292 291 291 292 291 291 292 291 291 290 290 290 291 291 290 289 290 290 290 290 290 290 291 290 290 291 291 291 292 292 292 292 292 293 293 293 294 295 298 303 306 307 306 308 310 312 314 315 316 317 318 319 320 321 322 324 325 325 326 326 326 328 330 334 338 339 340 342 343 343 343 343 343 343 343 343 344 344 344 344 344 343 342 342 343
292 292 292 291 291 291 291 291 290 289 290 289 290 290 290 290 290 291 290 290 289 289 291 290 289 289 290 291 291 291 291 292 292 292 292 293 293 293 294 296 302 305 306 306 308 309 311 312 313 315 316 317 318 320 321 321 322 324 325 326 326 327 329 331 335 337 338 339 342 343 343 343 343 343 343 343 343 343 343 343 343 343 342 342 343
292 291 291 290 291 291 290 290 290 289 289 290 290 289 288 288 289 290 289 289 289 289 290 289 288 289 289 290 290 290 291 291 291 291 291 292 292 293 293 294 295 301 303 306 306 307 309 310 311 313 314 315 317 318 319 319 320 321 322 324 326 327 326 328 332 335 337 339 339 340 342 342 342 342 342 342 342 342 343 343 343 343 343 343 343
291 291 290 289 290 290 289 289 288 289 289 289 288 288 287 288 288 288 290 289 287 287 287 287 287 288 288 289 289 289 289 290 290 290 291 291 292 292 293 293 293 294 297 303 306 307 307 308 308 310 311 312 314 316 318 318 319 319 320 321 322 323 325 328 330 331 334 337 339 339 338 340 341 342 342 342 342 342 342 342 342 342 342 342 341
291 290 290 289 289 289 289 288 289 289 287 288 288 288 288 288 287 287 287 286 286 287 287 286 287 287 288 288 288 289 289 289 289 290 291 291 292 292 293 293 293 294 297 296 300 303 305 306 308 309 311 311 312 313 314 316 317 317 319 320 321 323 324 324 324 331 334 334 337 338 339 339 339 341 342 342 342 341 341 341 342 343 341 341 341
290 290 289 288 288 287 288 288 288 287 288 287 288 287 287 288 288 287 285 285 286 285 286 285 286 286 287 287 288 289 288 289 289 290 291 291 291 292 292 293 294 293 298 296 296 298 305 307 307 307 308 309 310 311 313 314 316 317 318 319 320 321 322 323 324 324 325 332 336 337 337 338 339 339 340 342 341 341 341 341 341 342 342 341 341
290 289 288 288 287 287 287 288 288 287 287 287 287 288 287 289 286 288 285 284 284 284 285 285 285 286 286 287 287 288 287 288 289 289 291 290 291 291 292 293 294 299 295 295 297 297 301 305 307 306 307 307 308 310 311 313 314 315 316 317 318 320 320 321 323 323 323 323 325 334 337 337 338 339 338 338 341 341 341 341 341 341 342 341 340
289 289 288 288 287 287 287 288 288 287 286 286 286 287 286 286 285 285 286 285 284 284 284 285 286 286 286 286 286 286 287 288 288 291 290 290 290 291 292 293 293 294 295 296 297 297 298 301 305 307 306 307 308 309 310 311 312 314 315 315 316 317 317 318 319 320 322 323 323 324 330 335 337 338 338 337 337 340 341 341 341 341 341 341 341
290 289 287 287 286 287 286 287 287 287 286 286 285 286 287 285 284 284 285 285 284 284 284 285 285 285 285 285 286 287 287 288 288 288 289 290 291 293 295 294 294 294 295 296 296 297 297 296 296 297 298 304 307 307 308 310 311 311 312 314 315 316 317 318 319 318 318 320 323 325 325 329 333 337 338 337 337 336 341 341 341 341 341 342 342
289 288 287 287 286 286 286 287 286 286 285 285 284 284 284 284 283 284 284 284 285 284 284 284 284 284 285 286 285 285 285 287 287 287 288 289 290 292 292 293 293 294 295 296 295 294 293 292 294 295 297 301 305 307 306 306 308 310 311 312 313 315 319 319 319 320 320 321 321 321 325 328 330 334 337 337 337 337 336 339 341 342 342 341 341
289 288 287 288 286 286 286 286 286 285 285 285 285 285 285 284 284 284 284 283 283 283 284 284 283 282 283 282 283 285 286 287 287 287 288 288 290 290 291 292 291 288 289 291 292 291 292 292 293 294 294 295 296 301 305 307 307 307 308 310 311 313 316 318 316 315 315 315 318 323 322 324 329 331 335 337 337 337 337 336 339 342 342 342 341
288 288 287 286 285 285 285 285 285 285 285 285 285 287 285 284 284 282 283 282 281 283 284 284 281 279 279 280 282 283 284 285 285 287 287 287 286 286 286 286 286 287 288 289 290 291 291 292 292 293 294 293 294 294 297 298 299 304 306 308 310 311 313 314 313 313 313 314 314 317 323 324 324 326 331 334 335 337 337 337 337 339 343 342 341
288 288 287 286 285 285 285 284 285 285 284 283 284 284 284 283 283 282 281 282 282 284 283 284 280 281 281 279 277 278 282 284 285 284 285 285 285 285 286 286 287 288 289 289 289 290 292 292 292 292 292 292 293 294 296 297 297 300 304 305 306 308 310 311 312 314 314 315 315 315 317 322 326 327 328 329 333 335 337 337 337 337 338 341 342
288 287 287 286 285 285 284 284 284 284 284 283 283 282 283 283 283 283 282 279 280 280 284 283 282 281 276 277 277 277 276 280 279 282 283 283 283 284 285 287 286 286 286 286 288 288 289 290 291 291 292 293 293 294 294 294 296 298 298 299 302 303 306 309 311 313 314 315 315 316 317 318 323 328 329 330 331 333 335 337 336 337 337 337 340
288 287 287 286 286 285 284 283 284 284 284 283 282 282 283 283 283 282 281 280 279 280 281 283 282 284 280 277 275 276 275 277 279 279 281 282 283 284 284 284 284 285 286 286 287 288 288 289 290 290 291 291 291 292 292 292 293 294 294 296 298 302 303 307 309 310 312 313 316 316 315 315 316 321 328 330 331 332 334 335 336 337 338 338 337
287 287 286 286 285 285 284 283 283 283 284 283 282 283 282 282 282 282 281 281 280 279 278 282 283 284 283 280 279 274 276 278 276 274 281 282 281 282 282 283 283 284 285 285 286 286 288 289 289 289 289 290 290 291 291 292 293 293 293 294 300 301 301 303 307 310 311 312 313 313 314 314 314 316 324 328 330 330 331 334 336 336 336 335 338
286 286 286 285 285 284 284 284 283 283 283 282 282 282 282 282 283 282 281 283 281 278 279 279 280 281 282 282 283 283 281 278 275 277 275 278 280 280 281 282 283 283 284 285 285 285 285 286 286 287 287 289 289 290 290 290 292 293 295 297 300 300 301 301 302 305 308 311 313 313 314 315 315 316 317 320 325 328 330 332 334 335 336 334 337
286 285 285 285 284 284 284 283 283 282 283 282 281 282 283 283 283 282 282 281 280 279 278 279 277 278 281 280 280 281 280 280 280 277 276 275 277 280 282 281 282 282 283 283 284 284 284 285 286 286 287 288 288 288 287 288 289 290 291 296 298 299 301 301 302 303 305 308 310 314 314 315 316 316 316 317 319 323 328 329 331 334 336 336 337
286 285 285 285 285 283 283 282 282 282 283 283 282 282 281 281 280 281 280 280 280 280 279 278 278 278 278 277 278 278 278 279 279 279 276 275 275 276 278 281 281 282 282 283 283 284 284 285 285 286 286 286 286 287 287 287 288 289 292 296 297 299 300 301 301 302 304 305 307 309 311 312 312 314 315 318 318 320 322 327 328 331 333 336 336
285 285 284 284 283 283 282 282 282 282 282 281 281 281 281 280 280 280 281 280 280 280 279 278 279 278 278 278 277 276 276 276 276 276 277 277 275 276 277 276 276 279 280 282 282 283 284 284 284 284 285 285 286 286 287 288 288 289 291 295 296 297 298 298 300 301 300 303 303 304 308 310 311 313 315 315 315 316 318 321 325 327 330 334 335
284 284 284 284 283 283 282 282 282 282 282 281 281 280 280 280 281 280 280 279 279 279 280 280 279 279 278 278 277 277 276 275 275 276 275 274 275 275 276 277 277 276 279 281 282 282 283 283 283 283 284 284 285 286 286 287 289 291 293 296 296 296 297 299 300 300 301 301 302 302 303 306 308 310 313 314 315 315 318 320 321 325 327 329 332
283 283 283 283 283 282 282 281 281 281 280 281 281 281 280 280 280 279 279 279 279 279 278 278 278 278 278 278 278 278 277 277 277 277 276 276 276 275 275 276 277 277 279 280 281 281 281 282 282 283 283 284 285 286 287 288 288 291 290 292 294 296 298 300 300 299 300 301 301 302 303 304 305 307 308 311 314 317 317 318 319 320 322 324 327
282 282 281 282 282 281 281 280 280 281 281 280 280 280 280 279 279 278 278 278 278 278 277 277 277 277 276 277 277 277 277 278 278 277 277 277 276 274 276 276 274 275 277 278 277 280 281 281 282 282 283 283 285 285 286 287 287 289 291 289 291 292 293 295 297 298 299 299 300 301 302 303 304 306 308 311 313 315 315 315 315 318 320 321 321
281 281 282 282 281 281 281 280 280 279 279 279 279 279 279 278 278 277 277 278 277 277 277 277 277 277 278 277 277 277 277 278 277 277 277 276 275 275 274 275 275 274 276 276 278 277 278 281 281 282 282 283 284 284 284 284 285 288 289 288 288 291 292 294 296 297 298 299 300 300 300 302 304 305 307 310 311 313 314 313 313 315 318 320 320
282 281 282 281 280 280 279 279 279 279 279 278 280 278 278 278 278 277 277 277 277 277 277 276 277 277 277 277 277 277 277 277 277 277 277 277 276 275 274 272 273 274 274 276 276 276 277 279 281 281 281 282 282 282 283 283 285 286 286 284 284 287 289 294 296 297 296 297 297 299 301 302 302 302 304 305 306 307 310 312 313 315 316 319 319
281 281 280 280 279 279 279 278 278 278 278 278 277 277 276 276 276 276 276 278 277 276 276 276 276 276 276 277 276 276 277 277 277 277 277 277 277 277 276 274 272 270 273 273 274 275 278 277 279 280 280 280 281 281 283 283 282 285 284 283 283 284 288 290 293 295 297 297 298 298 298 299 300 302 304 305 305 305 306 307 307 307 308 311 314
280 280 279 279 278 278 278 278 277 277 277 277 276 276 276 276 275 275 275 276 276 276 276 276 276 276 276 276 276 276 276 277 277 277 277 277 277 277 277 275 274 272 271 271 272 273 276 278 276 278 280 279 280 280 280 280 282 282 281 281 281 282 285 288 289 291 292 294 295 296 297 298 299 300 301 301 305 305 305 306 306 307 309 309 311
279 280 278 278 278 279 277 276 276 276 276 276 275 275 275 275 275 275 276 276 275 276 276 276 275 275 276 276 276 276 276 276 276 277 277 277 276 277 276 276 276 274 273 271 271 275 275 277 277 277 278 277 279 279 280 279 282 281 280 280 281 281 285 286 288 290 291 292 292 294 295 296 297 297 299 302 305 305 306 305 306 307 307 310 311
278 278 277 277 276 276 276 276 276 276 276 275 275 275 275 275 275 275 275 275 275 274 274 275 275 275 274 274 275 274 275 275 275 276 276 276 276 276 276 276 276 275 274 273 271 274 277 274 277 278 278 278 278 278 279 279 281 281 280 280 280 282 284 284 286 289 290 290 292 293 294 295 296 297 296 301 301 304 305 305 306 306 307 310 312
277 277 276 276 276 276 276 276 275 275 275 274 274 274 274 274 274 274 274 274 273 273 273 274 274 274 273 273 273 273 274 274 274 274 274 274 275 275 275 275 275 275 274 273 272 272 276 275 276 277 277 277 278 277 277 278 280 281 279 279 279 282 279 279 282 285 288 290 291 292 293 294 294 294 296 297 301 303 304 306 306 307 307 308 309
277 276 276 276 276 275 275 275 274 274 274 274 274 274 273 273 273 273 273 273 272 272 272 272 273 273 272 272 272 272 273 272 272 273 273 273 273 273 273 273 273 273 273 272 271 271 274 276 276 276 277 277 276 277 276 276 276 277 279 277 278 277 278 278 279 282 286 288 290 291 292 292 294 295 296 294 300 301 304 306 306 306 306 306 306
276 276 276 275 275 275 274 274 274 274 273 273 273 273 272 272 272 273 272 272 271 271 271 271 271 272 272 271 271 271 272 272 272 271 272 272 272 272 272 272 271 272 273 272 271 271 270 273 274 275 275 276 274 276 275 275 275 276 275 276 277 277 277 278 279 280 284 287 290 292 293 293 294 296 295 296 297 301 302 304 304 304 304 305 306
276 275 275 275 274 274 274 274 273 273 273 272 272 272 272 272 271 271 271 271 271 270 270 270 270 271 270 270 270 271 271 271 271 271 271 271 271 271 270 271 270 271 271 272 271 269 270 271 273 273 274 274 274 274 275 275 276 275 275 275 275 277 277 278 279 280 283 286 288 289 291 293 294 294 296 296 299 300 301 301 303 303 304 304 305
275 275 274 274 274 273 273 272 272 271 271 271 271 271 271 271 270 270 270 270 270 270 270 270 270 270 270 270 270 270 270 270 270 270 271 271 270 270 270 270 270 270 271 271 271 270 270 269 271 272 272 272 273 274 275 275 275 274 275 275 275 275 276 278 279 279 282 287 289 290 292 293 294 296 297 297 298 299 300 300 302 303 303 303 304
274 274 274 273 273 272 272 271 271 271 271 271 271 271 271 270 270 270 270 270 270 270 270 270 271 270 270 270 270 270 270 269 269 270 271 270 271 271 270 270 270 271 271 271 271 271 270 269 270 272 272 272 273 273 274 273 273 274 274 274 275 275 276 278 279 280 283 286 286 287 288 290 292 294 295 296 297 299 299 300 301 302 302 303 303
273 273 273 272 272 271 271 271 270 270 270 270 270 270 270 270 270 270 270 269 270 270 270 270 270 270 270 270 270 270 270 269 270 270 271 271 271 271 271 271 271 271 271 271 271 271 270 270 270 270 271 271 272 273 274 274 273 272 273 274 275 275 276 276 278 280 281 283 284 285 287 288 289 291 293 294 296 298 299 300 301 300 300 300 301
272 271 271 271 271 270 270 270 270 270 270 270 269 269 269 269 269 269 269 269 270 270 270 270 271 271 271 271 271 271 271 271 271 271 271 271 271 271 271 271 271 271 271 271 271 270 270 270 270 271 270 272 272 271 273 274 274 273 272 272 273 275 276 276 277 280 282 282 285 287 287 288 288 289 291 293 297 298 298 300 300 300 300 299 300
271 271 270 270 269 269 269 269 270 269 269 269 269 269 269 269 269 269 270 270 270 270 270 271 271 272 272 272 272 272 272 272 272 272 272 272 272 271 272 272 272 271 271 271 271 271 270 270 270 270 271 271 272 273 274 274 273 273 274 273 272 273 275 277 279 280 282 283 283 284 287 288 289 290 292 293 296 298 299 299 299 299 298 299 300
270 270 269 269 269 268 269 269 269 269 269 269 269 269 269 270 270 270 270 270 270 270 271 272 273 273 273 273 273 273 274 275 276 277 277 277 275 274 274 273 271 271 270 271 271 270 270 270 270 271 271 270 271 271 271 271 271 271 273 274 273 274 276 277 278 280 281 281 282 283 285 287 288 290 292 293 294 296 297 297 298 297 297 299 300
269 268 268 268 268 268 268 268 269 269 269 269 271 274 274 270 270 270 270 271 272 273 273 273 273 274 274 274 274 276 277 277 278 278 279 279 279 277 276 275 275 274 273 272 271 270 270 269 269 270 269 269 270 271 271 272 273 274 273 273 273 274 276 276 277 280 282 284 284 284 286 289 290 291 292 292 294 294 294 295 296 297 297 300 301
267 267 267 267 267 268 268 268 268 269 269 270 273 275 276 277 274 273 273 273 273 273 273 273 273 273 274 274 274 275 276 276 275 277 278 278 278 279 279 279 279 276 274 273 273 273 271 270 271 271 270 270 271 272 272 272 273 273 273 274 274 275 274 274 273 277 282 283 283 282 283 289 290 289 290 292 293 294 296 296 297 298 299 300 301
267 267 267 267 267 268 268 268 268 269 270 272 274 275 276 276 277 275 274 274 274 274 274 273 273 273 273 273 274 274 274 274 275 275 276 278 278 278 279 279 279 279 279 276 273 272 273 272 272 272 272 272 272 273 273 273 273 274 275 275 275 275 275 275 275 275 279 282 280 280 282 287 288 287 286 288 289 291 292 295 297 299 301 302 301
267 266 267 267 267 268 268 268 269 269 269 272 274 275 276 276 277 276 275 274 274 274 274 274 273 273 273 273 273 273 274 276 275 274 274 274 276 278 278 278 278 279 279 280 280 276 274 273 272 272 273 273 273 274 276 276 277 275 276 275 276 276 276 275 275 276 278 281 281 279 279 282 285 285 285 287 288 289 291 294 296 297 299 302 303
266 266 267 267 267 268 268 268 269 269 269 271 273 274 275 276 276 277 275 275 274 274 273 273 272 272 272 272 272 272 273 274 274 274 274 274 274 274 274 274 274 276 278 279 278 279 278 275 274 272 273 274 273 274 275 276 275 274 275 274 275 275 275 275 277 277 279 281 279 278 277 279 282 285 284 286 288 289 290 293 296 297 299 301 303
266 266 266 266 267 268 268 268 268 268 268 271 273 274 275 276 276 277 275 274 273 273 273 273 272 272 273 273 273 273 273 273 274 275 275 275 275 275 275 274 275 275 275 275 275 275 275 275 274 274 274 275 275 275 275 276 275 275 276 275 275 275 276 277 277 279 279 280 279 278 275 280 284 284 285 287 289 289 291 293 296 297 299 300 302
267 267 267 267 267 267 268 267 267 266 267 271 272 274 275 275 276 275 273 272 272 272 272 272 273 273 273 273 273 273 273 274 276 278 278 276 275 274 274 274 274 275 275 277 279 279 277 276 276 276 276 276 279 277 277 277 277 277 277 277 276 276 275 274 274 276 277 280 282 281 280 282 285 284 285 287 288 288 289 291 294 297 298 300 301
266 267 267 267 267 267 267 266 266 266 266 269 271 273 274 275 275 273 273 272 272 271 271 272 272 273 273 273 273 274 274 274 276 278 279 279 275 274 273 273 273 273 273 275 278 280 280 281 281 281 282 282 283 283 283 283 281 280 277 275 274 276 274 273 274 275 276 280 282 284 283 282 285 285 285 286 287 287 289 290 292 295 297 299 302
266 266 267 267 267 267 266 266 266 265 266 268 271 272 274 275 275 273 272 271 271 271 271 272 272 273 274 276 276 274 273 273 277 278 279 277 274 273 273 272 272 272 273 275 276 276 279 280 280 281 281 281 282 282 283 283 283 282 277 274 276 277 275 275 274 276 278 280 281 285 282 283 286 286 285 286 287 287 287 289 291 293 296 298 301
266 266 266 266 266 266 266 266 268 267 266 267 271 272 274 274 274 273 272 271 270 270 271 271 273 273 273 274 275 275 274 275 278 278 278 277 274 274 274 273 272 272 273 274 274 274 275 275 275 276 277 278 278 277 278 281 282 281 279 278 279 277 275 276 276 276 275 277 281 284 281 282 284 285 285 284 282 286 287 288 290 292 295 299 302
Wind_Speed
3 3 3 3 4 3 3 4 3 5 5 5 5 5 5 6 5 6 5 6 6 7 6 7 6 6 7 8 7 7 7 7 6 6 6 7 6 7 11 13 16 17 19 19 19 19 19 19 19 19 20 20 20 21 21 21 21 20 20 20 20 20 20 20 18 16 15 16 16 16 16 17 17 18 19 21 20 22 25 27 29 27 25 24 24
3 3 4 3 3 4 3 3 3 4 6 5 5 5 5 5 5 4 5 6 6 6 6 7 7 6 7 7 7 7 8 8 8 8 7 7 6 7 10 12 14 18 18 19 19 19 19 20 19 19 20 21 21 21 22 22 22 22 21 20 21 21 20 20 20 18 16 16 16 17 17 17 18 19 20 20 21 22 24 26 29 27 26 25 22
3 3 3 2 4 3 2 3 3 4 4 4 4 4 5 5 5 5 6 6 5 6 6 6 6 6 7 7 8 7 8 8 8 8 9 8 7 7 8 12 12 14 16 18 19 19 19 19 19 20 20 20 21 21 21 21 22 22 22 22 21 22 21 20 19 20 20 18 18 17 18 18 18 19 20 21 21 22 23 25 24 27 27 24 22
3 3 1 1 3 1 1 2 3 5 5 4 5 4 4 4 4 3 4 4 5 6 6 6 6 7 6 7 7 7 7 8 8 9 8 8 8 8 7 8 11 12 13 16 17 17 18 18 18 18 19 20 20 21 21 21 21 22 23 22 22 21 21 21 19 19 19 19 19 19 18 18 19 20 20 21 21 21 22 24 22 23 24 22 20
4 3 1 2 2 1 3 2 5 5 4 3 3 3 4 4 3 3 5 4 5 5 5 6 6 7 6 7 7 7 7 7 8 8 9 8 8 8 7 7 6 9 11 12 14 15 16 17 17 18 18 19 20 20 21 22 22 22 23 23 23 22 22 22 21 19 18 18 18 19 19 19 19 20 21 21 21 21 21 21 22 25 25 28 27
3 3 1 3 1 2 3 4 5 3 3 3 3 4 4 3 3 5 5 5 6 5 6 6 6 6 6 6 6 7 7 8 9 9 9 8 8 7 7 7 6 6 5 8 9 10 15 17 18 18 18 19 19 20 21 22 23 23 23 23 23 24 23 23 22 22 21 20 19 18 18 21 20 20 21 22 22 22 21 21 21 25 25 27 27
2 3 2 1 2 3 3 5 4 3 3 3 4 4 3 3 5 5 5 5 5 5 5 6 7 7 7 6 7 8 8 9 9 9 9 9 8 7 7 6 6 6 6 6 6 8 12 15 16 17 18 18 19 20 21 22 23 23 24 23 23 23 23 24 24 23 22 21 19 17 17 20 23 21 21 21 22 21 21 21 21 22 26 28 32
3 2 2 2 2 3 3 4 3 2 2 3 3 4 4 4 3 4 5 4 5 6 5 6 6 8 7 7 8 8 9 8 9 9 9 8 7 6 6 6 6 6 6 6 6 6 9 11 14 16 17 18 19 21 22 22 23 23 23 23 24 24 23 23 23 24 24 22 19 18 17 17 20 24 23 22 21 22 22 21 21 22 22 24 25
4 2 3 3 3 3 3 3 3 1 2 2 3 3 3 3 3 3 3 6 5 6 6 5 6 7 7 8 9 9 9 9 9 9 7 7 7 7 6 6 6 7 6 6 6 5 6 10 12 15 15 16 19 20 20 21 22 23 23 23 23 24 24 24 23 23 23 24 23 20 18 18 17 21 27 26 23 22 22 22 22 22 22 22 22
4 3 3 3 3 3 2 2 2 1 1 2 3 3 3 3 3 3 5 4 5 6 8 6 6 7 8 9 10 9 9 10 10 9 7 6 6 6 7 7 6 6 6 6 6 6 6 7 9 11 12 12 16 19 20 21 22 22 22 23 23 23 25 25 24 23 23 23 24 24 22 20 20 18 20 25 27 23 22 23 22 22 22 24 28
4 3 3 3 3 3 2 1 1 0 1 1 2 3 2 3 4 5 3 4 5 6 7 7 7 8 9 10 9 9 9 10 10 8 6 5 6 6 6 6 6 6 6 6 5 5 4 3 5 6 7 10 12 17 20 22 22 21 21 22 22 24 24 24 24 24 22 23 24 24 25 24 23 20 18 20 24 28 24 23 23 23 23 24 29
4 4 3 3 3 3 2 1 1 1 1 1 2 2 2 3 3 4 6 5 3 5 5 6 8 9 10 9 9 11 11 11 10 8 6 5 6 6 6 6 6 5 4 4 4 4 5 6 7 7 6 7 10 14 19 22 20 19 20 22 24 25 23 22 21 22 23 23 23 25 25 25 24 23 20 19 21 25 28 26 23 23 24 24 24
5 4 4 4 3 3 3 2 2 1 1 2 1 2 3 3 3 3 4 6 4 4 6 6 8 8 6 8 8 8 11 12 10 7 7 5 5 5 5 5 6 9 9 7 6 6 7 8 6 6 7 6 6 11 15 16 13 16 21 23 25 27 26 26 26 27 28 30 28 25 25 26 27 26 24 21 19 22 24 28 27 25 24 22 25
5 4 4 4 4 3 3 2 2 1 1 1 2 3 3 3 2 3 2 4 5 6 8 7 3 7 13 15 11 7 7 10 5 1 4 5 6 8 8 8 8 8 6 7 6 6 6 6 6 6 5 6 8 8 9 7 6 13 21 24 25 25 27 28 28 29 30 30 31 30 27 25 26 27 29 27 24 21 23 24 26 27 26 26 26
5 5 5 5 4 4 3 3 1 1 0 2 2 2 2 2 3 3 5 2 3 4 5 4 6 6 8 7 7 13 6 6 3 10 15 12 11 8 8 6 8 5 5 7 7 6 5 6 7 7 7 8 7 7 6 7 10 13 16 21 23 24 26 27 27 28 28 29 28 29 29 27 27 27 28 29 28 26 24 26 26 27 29 28 27
6 5 5 5 5 4 4 2 1 1 2 2 2 2 2 3 3 2 1 5 3 2 2 4 3 6 7 4 9 5 9 0 9 11 13 11 4 6 4 5 7 8 8 7 5 5 7 7 7 7 8 7 6 7 7 8 12 14 16 16 17 22 26 26 26 27 27 28 27 24 25 27 29 29 29 29 30 28 27 25 27 28 26 30 29
7 7 6 6 5 5 3 3 2 1 1 2 2 3 3 3 2 3 2 3 4 3 3 3 4 1 1 5 5 2 2 11 16 12 4 4 5 8 6 10 6 5 5 6 6 7 8 8 7 7 8 8 8 9 9 9 9 9 12 14 17 19 21 24 26 27 29 28 26 26 26 28 29 30 29 29 30 29 29 27 26 27 28 28 32
6 6 6 5 5 5 4 3 2 3 3 4 3 2 3 3 4 3 3 2 3 5 4 3 3 2 2 5 5 5 10 8 3 10 9 9 9 6 4 3 4 5 5 6 7 6 5 7 8 10 10 10 10 9 8 8 9 9 9 10 15 19 22 26 28 28 29 30 30 29 30 31 31 30 30 29 29 30 31 29 28 28 30 30 27
6 6 6 5 5 5 5 4 3 3 3 3 2 3 3 4 3 2 2 1 2 5 5 5 3 3 3 4 6 6 7 7 6 9 18 8 6 2 2 3 4 5 5 5 8 9 9 9 10 10 10 8 8 7 8 10 13 15 17 18 20 25 26 26 26 27 28 27 28 29 29 30 28 29 30 31 30 29 29 30 28 28 27 30 27
7 6 6 6 5 5 4 4 3 3 3 4 3 3 3 3 2 2 1 2 3 5 5 4 3 3 2 4 4 4 4 5 5 5 9 14 25 5 7 7 4 4 7 11 8 8 10 9 9 10 9 9 8 10 11 12 12 12 11 16 21 24 25 26 26 25 26 27 27 28 28 27 29 30 31 31 31 31 31 30 30 29 29 28 29
7 7 6 6 6 5 4 4 4 4 3 4 3 4 4 4 3 2 2 3 3 3 3 5 3 4 3 3 3 5 4 4 4 4 4 10 18 17 19 10 8 8 9 5 8 10 9 11 10 10 10 10 10 11 12 13 12 12 13 18 21 25 26 26 27 27 25 25 27 29 30 31 31 32 33 32 31 30 30 30 30 31 29 29 30
7 7 6 6 6 5 4 4 4 4 3 3 4 4 4 3 3 3 3 4 3 4 5 5 4 3 3 4 4 4 4 3 4 5 6 6 12 20 18 20 24 10 2 12 11 8 10 9 11 10 10 10 10 11 11 12 12 11 14 20 22 26 29 29 31 30 30 28 28 30 31 32 32 31 31 33 33 32 31 31 30 30 30 29 31
7 7 7 6 6 5 5 5 4 4 4 4 5 5 4 4 4 3 2 3 3 5 5 4 4 5 5 6 6 6 6 5 5 4 4 6 9 15 16 16 18 23 15 6 10 10 11 11 11 10 10 11 11 10 12 13 15 14 19 20 23 27 29 30 30 30 31 31 32 32 32 32 32 32 32 34 36 34 31 31 31 30 30 27 29
8 7 7 7 6 6 5 5 4 4 5 5 5 5 4 2 1 1 2 3 3 4 4 5 5 5 5 6 6 6 6 6 5 5 5 7 8 13 15 15 18 16 12 11 14 10 10 10 10 10 11 10 10 11 12 12 12 19 19 20 25 27 29 31 31 31 30 31 30 30 32 32 33 33 33 34 34 33 31 30 30 31 32 32 29
8 8 8 8 7 7 6 6 5 5 6 5 4 2 1 1 2 2 3 4 4 5 5 5 5 6 6 5 5 5 6 5 5 5 5 6 7 11 14 10 14 20 20 12 11 9 9 10 11 9 10 10 10 9 10 10 11 15 19 16 26 29 31 33 32 31 31 31 31 32 33 34 34 34 34 34 33 34 34 33 32 32 33 34 34
9 8 8 8 7 7 6 5 5 4 3 2 2 2 2 3 2 2 3 4 4 5 5 5 5 6 5 6 6 7 7 6 7 6 7 7 8 10 12 12 12 16 16 17 15 12 8 4 6 6 7 9 10 10 10 12 14 17 19 17 21 28 30 32 33 32 32 31 31 32 31 30 33 33 33 33 33 34 36 36 35 34 34 34 34
8 7 8 7 7 6 5 4 4 4 4 4 3 3 3 3 2 3 3 3 4 5 5 5 6 6 6 6 7 6 7 7 6 7 7 8 8 8 8 13 16 15 16 14 17 17 15 11 8 8 8 7 8 10 11 9 11 19 22 17 17 26 29 31 31 32 32 33 32 32 31 30 32 35 35 35 36 36 37 37 35 34 34 34 34
7 8 7 7 7 6 5 5 4 4 4 4 4 3 2 1 1 2 4 3 5 6 6 5 7 7 7 7 7 8 7 8 7 8 8 8 8 8 8 9 12 19 17 19 17 18 14 12 11 7 7 8 6 4 10 15 14 21 20 15 16 18 25 28 31 31 31 32 33 32 33 33 33 32 32 33 33 31 32 34 35 35 33 32 29
7 7 7 6 6 6 5 5 4 4 4 4 3 3 2 2 3 3 5 4 5 6 6 6 6 6 6 7 7 8 7 7 7 7 8 7 8 8 8 10 10 12 15 17 23 19 20 9 10 9 3 4 9 5 7 8 12 16 15 18 19 18 23 31 34 36 36 35 33 33 32 30 30 33 35 36 33 35 36 37 36 35 34 34 33
7 6 7 7 6 5 5 4 4 4 4 4 3 3 3 3 3 5 5 5 6 5 5 5 6 5 6 6 5 7 6 6 7 7 7 7 8 8 8 9 9 13 13 15 22 18 19 20 12 11 11 3 3 11 8 10 18 20 17 17 18 17 28 35 35 35 37 38 37 36 36 35 34 34 33 35 34 35 35 37 34 35 35 35 36
8 7 7 6 5 4 4 4 5 5 4 4 4 3 3 3 4 5 4 4 5 5 4 4 5 5 5 7 6 8 7 8 7 7 7 7 8 8 8 8 9 10 12 13 17 22 14 19 22 12 11 15 10 10 14 12 13 18 16 15 17 25 32 27 35 35 35 37 37 36 35 35 34 35 36 32 37 37 37 35 34 33 37 36 35
7 7 7 6 6 5 5 6 5 5 4 3 3 2 2 3 3 5 5 4 4 5 4 4 5 5 6 8 8 8 7 7 8 8 8 8 8 8 8 9 10 9 10 13 17 25 19 18 21 24 16 15 16 12 13 15 12 19 15 14 17 26 21 20 30 35 35 35 35 36 35 35 36 38 36 35 33 41 34 30 31 30 30 31 34
8 8 7 7 6 6 6 5 5 4 3 3 3 3 3 3 4 4 4 5 5 5 5 6 5 6 7 8 8 8 7 9 8 8 8 9 8 8 8 8 10 9 10 13 18 23 21 16 18 20 20 13 17 14 13 15 15 12 13 16 18 17 18 18 20 30 34 35 36 36 36 36 35 35 34 36 32 36 35 31 32 30 30 31 33
8 8 8 6 6 6 5 5 4 4 3 3 3 2 3 4 4 4 5 5 5 6 5 7 6 6 7 8 9 9 7 9 10 10 9 9 8 8 8 8 10 11 10 14 17 18 25 18 19 19 20 13 18 18 16 16 18 14 17 16 15 16 17 18 18 19 32 34 35 35 34 35 34 35 36 34 36 34 34 35 30 30 30 30 30
7 7 7 7 6 6 5 5 4 3 3 3 3 3 4 5 5 5 5 4 5 6 7 8 7 7 8 9 10 8 7 9 10 10 9 9 8 9 11 9 11 12 12 13 15 19 21 22 19 19 18 16 15 19 17 15 16 14 17 17 14 14 15 18 18 16 27 33 37 38 39 38 36 36 34 35 34 32 31 35 32 29 29 30 30
8 7 7 7 6 5 5 4 4 3 3 3 3 3 4 5 5 6 5 6 6 6 8 8 8 8 9 9 10 8 9 10 10 9 8 8 9 9 11 11 12 14 14 13 15 17 17 20 20 15 20 17 18 16 15 15 15 15 15 16 15 17 18 17 18 18 23 35 36 35 35 35 35 34 35 36 35 33 32 34 33 29 27 28 29
8 7 6 6 6 5 6 5 4 4 4 4 4 4 4 4 5 6 6 6 6 7 8 9 9 9 9 9 10 9 9 10 11 10 9 11 10 10 11 12 13 12 12 13 16 16 18 20 18 19 16 18 16 19 14 16 16 15 16 16 16 17 18 18 17 19 28 36 37 38 38 38 38 37 38 39 39 35 33 33 32 32 28 29 30
8 7 7 6 6 6 5 5 4 4 4 3 4 4 5 5 6 6 6 7 7 8 9 9 9 9 10 10 10 9 10 10 11 11 11 14 13 14 14 14 15 15 14 17 15 19 18 20 18 20 15 21 13 18 14 15 16 16 16 16 17 16 17 18 17 15 15 15 13 15 22 27 32 37 37 39 42 39 34 30 29 33 32 30 31
9 8 7 7 5 6 5 4 4 4 3 3 4 4 5 6 7 7 7 7 9 8 9 9 9 10 10 10 10 10 11 12 12 13 14 15 13 16 17 16 17 14 18 14 18 16 20 17 20 19 19 15 16 20 12 15 17 15 19 19 19 14 14 16 18 14 13 15 21 29 27 26 28 26 29 37 38 38 34 31 31 33 34 33 32
9 9 8 8 5 5 4 3 3 3 3 4 4 6 6 7 7 7 7 8 8 8 9 10 10 11 12 12 12 13 13 13 13 14 14 15 15 18 17 15 15 17 15 17 14 18 15 20 15 20 13 21 13 16 16 13 18 17 13 16 21 19 15 15 14 13 13 14 16 16 18 22 25 32 39 40 37 34 32 31 34 34 35 34 33
8 8 7 7 6 5 4 4 4 4 4 5 5 6 7 8 7 7 7 7 8 10 11 11 11 12 12 12 12 13 14 19 24 22 21 21 14 13 12 11 13 14 15 16 14 15 14 16 16 15 16 14 18 14 18 17 14 19 18 14 19 17 14 16 15 13 14 16 17 17 17 19 17 17 16 15 20 25 25 29 26 31 32 31 32
8 7 7 6 6 6 5 5 5 5 5 5 9 15 13 7 6 5 5 8 10 11 11 12 12 12 12 11 11 19 21 22 23 25 26 27 28 22 18 16 15 13 13 13 13 13 14 17 16 15 18 18 17 15 16 19 16 17 19 18 19 17 14 16 16 15 9 11 13 16 19 17 16 15 12 12 10 12 10 13 14 18 24 30 31
9 7 7 8 6 6 6 6 6 6 6 7 14 14 14 15 8 6 8 9 10 11 11 11 12 12 12 13 12 14 17 18 18 25 25 26 27 29 32 31 26 20 16 16 17 15 15 15 13 13 17 19 17 18 16 18 16 17 17 16 17 14 13 14 19 20 10 6 12 14 17 12 8 7 8 9 8 9 10 12 18 24 27 29 30
8 7 7 7 6 6 6 6 7 7 6 9 13 13 13 13 12 9 8 8 9 10 10 11 11 11 12 12 11 9 10 13 13 14 19 27 31 32 33 31 31 31 30 22 18 17 17 17 18 17 16 17 17 15 14 15 14 17 16 14 13 12 15 15 16 16 15 7 14 16 17 11 7 9 9 10 10 10 12 16 21 23 27 29 30
9 8 7 7 7 7 7 7 7 7 6 9 12 13 12 13 13 11 8 9 10 10 10 11 11 12 11 11 11 11 11 19 17 15 16 17 25 32 32 33 32 33 32 34 33 25 19 20 21 22 17 17 20 17 13 16 16 19 17 15 14 12 14 18 16 16 19 10 11 16 19 20 13 12 11 12 10 11 12 16 23 26 28 28 29
8 8 8 8 7 7 7 7 6 6 6 8 12 12 12 12 13 12 8 9 9 10 11 10 10 11 12 12 13 13 11 13 14 16 16 17 17 17 16 15 14 20 28 31 33 36 31 23 22 23 22 18 21 19 19 18 18 16 15 15 12 13 14 14 14 17 16 9 11 14 18 22 17 12 13 13 10 11 11 16 22 24 27 28 28
9 9 8 8 7 6 6 5 5 5 5 10 11 12 12 12 12 11 7 7 8 8 9 10 10 11 13 13 14 13 15 17 14 18 18 17 16 16 17 17 17 12 11 13 14 16 17 19 22 24 25 22 23 23 20 17 18 17 16 19 17 16 16 14 14 15 17 14 14 13 17 18 13 11 12 11 10 11 10 16 22 24 27 28 27
6 6 6 6 7 7 7 5 4 5 6 10 11 12 12 11 12 7 6 7 7 8 8 10 11 11 12 12 12 15 17 14 20 28 25 20 19 19 19 18 16 15 15 18 27 27 24 19 18 19 19 22 27 23 21 18 16 15 15 17 16 14 12 16 18 14 14 14 11 12 14 15 13 11 13 10 9 11 12 12 19 24 27 28 29
9 8 7 7 6 6 6 6 6 6 6 8 11 11 11 11 9 4 5 5 7 8 9 10 11 11 10 11 13 14 16 17 23 29 29 28 19 17 16 17 18 17 16 17 26 34 35 37 39 40 41 41 39 40 39 40 31 20 15 17 18 12 15 15 13 14 16 11 10 10 14 16 13 10 11 9 10 13 12 12 12 19 26 26 28
9 8 7 6 6 6 7 7 6 6 5 8 11 11 11 11 8 4 4 6 6 7 9 10 9 9 12 20 19 15 16 17 26 30 30 25 17 16 17 19 21 20 16 13 13 16 27 34 37 39 40 38 39 40 40 38 36 27 17 20 18 13 18 15 13 14 14 13 14 9 13 15 11 7 9 12 12 9 10 11 13 13 20 23 27
8 7 6 6 5 4 5 5 8 8 6 8 12 10 11 10 8 5 5 5 6 7 8 9 9 10 12 13 20 19 19 21 29 28 32 26 19 18 17 17 17 19 18 17 17 17 16 16 19 21 23 28 26 23 24 35 35 31 21 19 14 15 17 17 15 14 15 16 11 10 15 15 11 11 9 9 9 10 8 10 6 7 9 11 13
Wind_Direction
66 57 68 48 57 36 30 33 15 40 28 10 27 8 350 341 342 347 339 334 331 324 327 327 326 327 327 321 323 324 321 311 304 305 299 292 292 290 293 295 300 304 304 305 305 306 306 305 304 303 302 300 299 298 297 296 293 288 286 287 288 290 287 285 278 268 263 259 255 248 243 236 239 242 242 241 238 233 223 218 217 214 206 194 185
69 45 67 43 60 37 34 31 31 47 34 18 17 9 341 332 331 334 332 327 324 314 323 321 324 326 323 321 322 320 315 313 314 311 306 302 295 291 291 296 297 301 302 303 304 304 305 306 306 305 304 303 302 300 299 298 297 295 290 285 286 287 287 283 282 276 263 257 254 253 246 234 230 235 237 235 236 233 231 222 215 210 210 198 187
85 57 52 56 66 49 15 49 37 51 37 15 8 351 327 312 310 319 323 313 302 308 314 314 318 320 319 318 315 314 312 309 306 307 307 305 305 302 300 300 297 297 301 303 304 305 305 307 307 308 307 306 304 303 302 300 299 298 297 291 284 283 282 283 281 279 275 265 255 249 246 239 232 236 241 241 237 237 237 235 234 227 214 201 191
104 97 99 88 86 79 66 52 55 47 23 3 341 316 304 294 308 324 309 303 312 313 310 322 317 312 312 310 307 308 303 301 301 301 300 301 300 302 302 298 300 299 300 305 306 308 309 310 309 308 308 308 307 306 304 303 301 299 298 297 293 285 282 280 279 277 277 277 268 254 246 243 238 236 239 243 242 240 241 239 228 221 216 209 195
121 131 153 108 106 105 72 50 66 48 8 325 323 327 323 315 318 330 320 328 321 320 327 321 311 308 308 305 307 302 299 299 297 295 291 290 292 292 291 295 295 298 299 300 304 309 313 314 315 313 311 310 310 309 307 306 304 302 300 299 297 293 286 283 282 277 274 274 272 265 256 243 240 239 239 240 242 243 242 239 223 215 212 206 201
118 110 79 100 119 102 85 72 65 44 345 334 353 317 305 318 336 338 324 327 325 319 321 313 303 301 306 300 303 298 301 298 293 289 287 284 284 284 285 288 291 293 297 297 305 316 317 314 312 312 312 311 310 309 308 307 306 304 301 299 297 295 292 288 283 279 276 274 272 270 263 261 247 238 236 238 239 240 242 240 231 222 216 215 209
105 116 123 120 109 92 81 86 73 31 1 340 323 313 313 342 342 329 320 325 314 312 313 310 311 310 305 305 296 296 291 287 286 283 280 279 279 279 280 282 286 291 292 292 295 300 297 298 306 311 312 313 313 311 308 305 304 303 302 301 299 296 294 292 288 285 279 274 272 268 264 257 256 243 234 234 238 239 239 238 234 226 226 220 216
128 132 132 119 119 98 87 77 69 37 354 315 334 326 337 335 319 323 333 313 318 312 317 311 311 304 300 297 292 288 286 280 277 274 272 278 278 280 282 280 281 281 280 280 279 279 275 285 302 307 309 309 308 307 306 304 303 302 302 301 301 299 297 294 291 288 285 285 280 273 269 263 256 255 244 235 237 239 240 237 235 232 229 229 223
134 145 145 130 103 87 75 77 71 48 323 318 329 327 327 309 303 338 336 311 315 310 311 303 297 293 293 291 291 287 280 276 272 269 274 272 279 281 280 276 275 277 279 275 281 275 278 289 290 296 297 299 301 303 304 305 305 303 302 302 302 302 301 298 293 290 288 284 283 282 276 269 262 258 256 250 237 237 239 238 234 232 231 226 212
144 142 121 124 112 110 87 100 95 36 337 329 308 301 287 303 334 331 322 311 313 312 306 301 295 297 296 290 284 279 275 275 269 270 269 268 269 273 270 277 278 274 275 280 279 276 280 280 287 292 291 288 294 302 304 303 302 302 303 303 303 303 301 300 298 294 290 287 284 282 279 274 269 259 254 253 250 239 237 239 237 234 231 226 215
150 139 132 107 98 96 111 116 105 335 319 311 303 291 315 5 340 313 304 300 294 296 292 296 301 297 293 287 282 280 280 274 273 272 261 250 254 253 264 268 270 268 266 272 266 273 286 305 314 301 285 282 286 298 302 302 301 301 302 303 304 303 300 297 298 297 295 291 287 282 278 275 271 264 255 252 253 252 241 236 237 235 232 228 225
149 141 116 122 123 126 122 121 176 180 234 306 292 302 329 330 325 320 310 301 283 281 293 305 297 292 288 289 288 288 282 274 272 267 260 260 255 262 266 266 272 280 297 298 304 316 320 320 310 294 289 285 293 298 301 299 297 301 306 307 307 304 300 295 295 300 302 297 289 285 281 278 275 269 258 251 251 252 251 245 236 235 231 227 225
144 140 153 142 141 159 148 166 170 181 207 239 257 320 314 309 298 299 301 311 313 321 310 310 306 300 285 286 294 278 275 278 274 274 268 272 295 311 299 317 314 310 305 301 304 313 314 304 291 293 291 298 302 303 298 294 301 307 304 305 304 303 306 309 310 310 309 307 301 290 280 279 277 275 268 257 248 250 250 252 245 234 230 220 219
153 152 149 148 151 149 150 162 147 181 217 238 276 266 282 285 283 310 297 316 311 328 309 334 324 343 332 329 326 316 282 273 279 26 1 327 311 302 302 296 292 294 292 294 299 296 291 289 290 294 305 310 308 299 288 290 304 309 305 300 300 301 304 306 305 302 299 295 295 293 290 279 274 276 275 269 259 249 248 248 250 242 231 225 219
153 153 148 156 155 145 162 162 151 152 306 283 266 280 282 298 287 273 306 309 292 289 303 360 303 321 294 293 329 333 333 307 343 2 323 305 297 298 291 288 289 292 304 309 297 290 295 297 295 296 295 291 285 282 286 294 298 297 295 296 296 298 297 294 293 293 293 291 288 287 289 291 284 274 271 272 269 260 253 250 245 247 245 233 220
159 159 154 153 158 163 154 144 164 161 191 241 259 267 277 281 270 265 292 309 316 294 310 318 307 334 349 19 303 317 313 17 327 295 265 278 284 266 276 300 301 299 298 290 288 303 297 290 289 291 288 286 286 294 295 295 292 295 295 295 294 294 291 291 292 293 293 290 288 284 286 290 290 286 277 271 268 266 260 253 247 244 242 243 232
161 161 161 163 164 160 148 156 158 179 191 229 245 241 244 241 250 269 249 237 291 287 301 305 292 245 180 340 332 308 288 318 327 305 149 13 268 277 273 279 271 285 301 295 291 288 288 285 286 287 289 288 289 288 286 283 284 280 278 276 278 276 281 287 289 290 291 291 290 292 292 291 289 286 286 277 272 270 266 258 252 248 244 240 238
160 162 160 158 160 156 150 143 164 201 204 212 219 251 269 262 246 223 243 242 255 289 291 302 279 266 203 186 207 260 316 312 337 309 288 238 262 196 256 232 264 288 282 278 284 285 283 294 291 290 287 284 279 277 276 278 279 278 273 271 269 280 284 285 284 283 281 282 283 284 286 284 283 285 284 284 283 275 268 268 259 249 247 245 240
164 163 162 164 159 157 154 157 172 189 209 207 227 235 242 244 248 239 227 240 286 283 278 280 324 285 249 232 246 267 280 308 306 316 321 319 168 284 236 242 269 273 267 275 291 290 287 282 283 280 280 276 276 280 285 284 280 276 274 276 277 279 280 278 278 279 280 277 277 278 278 279 281 281 283 281 279 282 282 273 263 254 247 245 240
163 165 165 164 162 157 151 158 171 195 200 207 207 222 233 252 244 224 230 235 241 254 268 273 292 285 308 296 290 273 257 258 253 262 294 307 309 279 211 246 273 243 285 292 281 282 289 284 282 283 284 283 288 290 289 287 283 277 274 270 274 278 279 279 276 276 274 274 274 273 273 276 281 283 283 281 277 277 276 277 274 261 249 240 241
166 165 168 164 160 158 155 163 177 198 197 204 212 218 226 230 252 270 255 256 230 240 266 273 267 270 305 288 284 264 274 261 266 271 262 303 291 299 309 291 254 256 281 274 292 294 289 291 288 288 289 291 291 288 286 287 287 285 282 284 284 285 284 284 283 280 277 273 273 273 274 274 274 278 279 279 279 276 274 272 274 277 257 245 242
168 164 164 165 157 153 157 170 184 196 198 207 216 226 232 233 232 232 233 241 243 248 246 250 247 256 252 262 262 281 286 272 261 252 270 233 267 299 308 314 315 305 303 303 299 290 293 291 292 291 290 289 289 286 283 280 281 284 284 286 285 285 285 284 283 280 280 279 279 276 271 269 268 266 271 277 278 275 275 274 270 271 277 255 241
163 168 165 162 159 158 163 177 184 190 197 203 216 213 221 228 221 213 218 225 243 243 254 253 248 250 250 240 239 237 233 252 260 262 264 275 294 285 293 299 297 303 306 294 292 297 291 291 289 287 288 287 284 284 283 282 282 282 287 290 288 286 284 282 281 279 278 276 274 273 269 267 268 267 267 271 273 273 272 272 270 269 269 274 257
163 164 171 163 158 164 169 176 185 192 206 210 215 213 209 188 188 211 240 241 238 241 241 246 248 247 246 241 247 243 249 250 257 247 242 265 272 283 290 306 301 286 290 306 293 281 276 284 283 284 284 284 285 285 285 288 288 294 295 290 290 291 289 286 283 281 277 276 275 273 272 270 268 266 264 261 265 269 270 271 272 271 269 268 272
167 163 168 163 159 165 172 180 188 197 207 207 205 183 161 194 207 225 233 237 237 239 242 244 241 244 246 249 253 251 256 255 260 253 253 266 267 279 283 289 285 299 303 311 299 300 280 273 271 270 277 281 280 279 287 289 293 297 302 309 307 303 298 291 285 280 278 277 276 275 271 269 267 265 261 258 260 265 268 269 270 271 268 266 265
166 171 165 158 161 167 169 176 180 181 181 191 199 199 192 194 203 225 243 244 244 245 246 249 251 253 251 260 252 256 258 256 257 256 260 264 261 264 287 288 280 286 293 302 294 302 286 214 251 266 271 283 287 293 293 295 291 294 301 301 296 292 288 285 283 281 280 278 275 273 273 271 268 266 262 261 260 264 268 269 269 268 267 264 261
164 159 151 154 157 154 160 163 177 186 186 190 185 185 191 195 200 217 240 240 242 244 249 247 252 250 251 247 256 253 252 253 247 251 252 248 254 265 273 290 296 288 288 286 293 281 281 284 266 272 270 270 282 288 290 296 311 315 316 310 301 299 295 291 286 281 279 278 277 276 273 269 266 265 265 264 262 261 263 266 267 267 266 264 260
147 142 145 146 152 156 162 175 179 184 191 189 191 186 183 191 234 242 255 244 242 242 243 242 247 249 251 252 256 255 253 253 250 254 249 248 253 258 257 265 280 294 299 300 293 283 285 286 286 231 249 272 265 287 305 306 305 308 309 305 299 292 290 292 292 291 287 280 274 271 272 272 273 272 267 260 256 255 257 261 265 267 267 266 266
144 143 143 147 155 159 169 176 181 183 183 186 181 183 185 196 217 234 245 242 242 241 243 239 245 250 249 251 251 259 256 254 256 253 250 250 249 248 245 251 257 268 286 294 291 297 297 290 289 291 182 263 293 286 293 293 298 301 298 293 289 288 290 292 293 291 289 288 286 286 284 283 279 273 267 263 258 254 256 258 260 263 262 261 260
144 145 144 150 153 157 163 174 178 182 188 188 184 190 191 210 220 234 234 232 242 246 243 243 253 248 253 257 253 265 266 267 265 260 255 256 256 252 253 253 250 257 266 275 283 286 292 296 275 285 295 234 270 298 289 288 291 289 284 283 282 282 287 287 284 283 284 284 283 282 282 280 278 278 277 267 257 253 250 255 257 260 262 262 260
143 144 148 151 151 165 168 183 186 192 186 188 187 190 192 217 230 240 241 237 242 249 244 254 263 262 267 268 271 271 275 277 274 271 273 271 269 271 267 266 260 260 271 273 281 279 282 289 293 281 287 298 293 291 292 284 282 284 283 281 282 283 286 289 287 283 279 279 279 278 278 277 277 275 273 272 269 256 253 254 258 257 259 259 259
148 145 151 155 160 171 179 182 189 186 186 185 177 185 201 221 232 244 247 241 250 253 261 258 266 268 269 269 268 270 277 280 276 276 276 272 274 275 275 271 269 266 268 270 267 276 281 284 290 292 292 296 298 289 285 290 284 283 284 282 286 292 293 287 284 280 279 277 274 275 275 275 274 275 272 272 270 264 248 247 250 253 255 258 260
149 152 156 160 165 172 176 180 183 188 180 189 175 179 206 233 239 242 245 248 253 258 265 266 262 266 266 268 267 269 276 275 274 275 272 272 273 273 274 276 275 271 267 268 269 274 279 279 283 287 296 302 294 291 294 291 291 287 282 282 283 282 285 285 284 281 276 273 274 272 271 272 273 272 270 266 263 262 252 245 250 253 254 255 256
150 154 158 158 163 171 174 186 187 185 185 180 182 181 222 234 243 236 244 247 250 260 258 265 262 260 265 266 269 270 266 267 271 270 270 271 269 269 265 265 267 267 264 270 271 273 279 284 281 285 287 298 291 292 292 293 289 288 285 282 283 283 283 283 280 278 280 280 276 272 270 271 268 268 268 263 262 259 257 255 253 253 254 253 252
149 154 158 158 165 167 174 182 184 184 183 189 188 202 223 230 237 242 244 243 252 258 259 260 263 264 265 263 267 269 269 271 268 268 264 263 265 268 269 266 267 266 263 260 270 272 275 278 280 286 287 294 286 292 293 285 283 285 284 281 281 284 281 281 278 273 273 272 274 272 272 269 266 266 267 265 259 256 257 257 256 254 252 251 249
151 155 154 159 159 169 176 182 182 187 189 191 201 214 225 230 240 247 243 246 250 253 255 259 261 259 259 265 264 263 266 269 270 268 262 256 257 258 262 261 262 263 261 257 255 265 272 277 277 276 283 290 286 286 286 285 282 282 278 282 279 277 278 278 278 277 276 278 278 277 274 274 275 275 273 266 260 257 254 254 255 253 251 251 250
153 150 156 155 160 167 181 185 193 193 196 195 205 220 227 227 235 240 243 246 248 251 253 255 258 256 255 255 263 260 262 266 269 267 270 266 261 260 259 262 260 258 261 260 262 258 265 267 274 273 276 277 278 280 280 283 283 276 280 276 280 279 280 278 279 275 276 272 270 271 270 269 270 270 270 271 267 257 253 253 253 255 253 251 250
148 155 157 163 167 178 178 189 188 194 191 192 205 221 228 234 237 237 241 245 248 251 251 252 252 253 255 254 256 256 255 259 267 271 273 272 269 264 257 257 263 261 261 263 258 263 258 264 264 275 269 277 274 275 273 274 280 282 280 277 277 278 282 284 274 272 271 274 274 269 266 263 261 263 264 264 263 255 251 250 252 254 254 251 249
153 157 161 158 166 170 180 177 189 190 197 200 213 227 231 234 234 239 245 247 249 249 250 250 251 252 253 253 255 256 258 260 264 267 268 266 265 268 268 263 265 256 260 254 259 255 260 260 266 263 268 267 266 277 268 268 271 270 283 285 281 279 277 276 278 272 270 270 268 266 265 263 262 260 260 262 255 250 251 251 251 250 251 250 246
154 157 162 162 159 156 173 176 190 187 198 212 223 227 232 230 233 237 239 245 251 256 255 255 256 257 256 260 257 255 255 256 252 256 260 270 273 270 267 261 260 259 257 261 256 258 255 261 258 266 256 273 261 268 270 265 274 269 257 277 283 289 287 278 270 286 286 279 279 278 268 263 261 259 256 255 251 244 242 246 248 249 248 246 243
142 146 147 148 157 159 169 176 192 201 206 221 224 227 226 229 224 231 240 251 255 257 258 261 261 261 262 262 262 263 262 265 266 268 270 270 267 268 259 239 245 246 255 258 257 257 258 260 262 260 264 262 265 264 270 263 257 271 278 270 277 277 278 280 276 255 261 276 277 269 269 264 259 253 247 240 240 242 242 243 248 249 246 244 242
141 144 145 146 155 164 172 189 197 209 218 220 230 232 229 211 215 226 238 244 253 260 265 269 267 265 264 263 264 271 275 279 282 281 281 282 281 281 283 282 280 274 267 263 259 256 257 260 258 259 262 261 262 253 260 263 264 268 270 270 272 278 278 279 278 272 262 259 275 285 278 263 247 248 243 246 244 240 246 247 245 247 245 242 239
144 142 144 149 159 171 182 195 208 212 218 223 233 237 241 244 234 232 249 259 262 264 265 268 273 273 273 275 276 275 277 280 281 281 282 280 281 284 284 284 283 280 280 280 280 278 270 261 260 254 254 257 253 257 252 264 261 262 267 267 265 272 273 281 288 292 257 240 288 298 299 295 295 290 282 265 257 252 252 249 249 248 245 240 236
143 139 148 161 163 177 186 200 212 219 223 233 238 244 248 249 251 254 257 259 261 265 270 272 273 278 282 281 277 276 275 277 278 279 280 281 283 284 284 284 285 282 279 276 277 277 276 281 277 270 265 261 264 251 256 255 260 262 259 261 260 265 272 272 273 276 288 327 297 291 286 281 272 270 270 262 256 256 254 256 257 256 249 241 235
142 151 160 163 174 179 191 200 213 220 229 239 248 254 257 257 259 261 262 265 268 266 270 275 282 284 284 284 286 284 282 286 287 280 277 277 278 279 281 283 281 279 279 278 276 273 274 272 273 274 272 283 281 276 270 271 271 273 277 271 262 261 262 270 270 277 280 296 299 294 293 290 289 280 272 269 268 264 261 258 257 257 258 250 238
150 153 162 167 172 181 191 201 211 226 234 242 254 258 261 262 263 267 267 267 271 278 280 281 280 283 284 289 293 291 288 286 281 280 279 277 278 279 276 272 270 270 271 268 270 271 272 271 272 272 271 264 269 271 270 272 273 271 275 271 266 262 262 259 269 271 278 283 271 284 282 278 277 273 271 276 270 266 259 259 258 260 259 255 243
156 159 162 166 177 176 185 197 209 227 237 247 255 260 263 268 270 273 278 285 284 278 277 280 282 282 288 290 290 289 293 289 281 286 288 288 289 288 287 285 282 271 254 253 252 253 256 258 262 265 268 264 262 265 263 257 253 257 257 263 264 262 267 270 265 261 271 263 257 254 260 270 268 267 271 274 273 268 265 269 265 262 259 256 249
140 143 152 158 168 176 185 186 201 233 246 252 261 264 267 269 275 282 284 282 279 282 282 284 285 287 288 289 290 294 290 287 292 295 297 298 296 293 291 290 288 281 275 274 275 275 272 264 259 259 259 262 262 258 257 252 251 248 251 257 260 260 264 265 265 270 263 267 242 248 259 267 267 267 275 267 269 273 272 266 264 260 261 256 251
151 156 158 161 166 170 176 180 200 231 245 255 262 264 264 269 279 267 267 267 274 279 284 287 288 286 283 289 295 296 298 297 298 300 299 303 302 298 293 287 281 275 271 272 272 276 279 278 277 276 277 276 275 273 272 267 263 254 253 257 255 254 260 257 258 261 264 265 251 235 255 259 264 267 272 270 269 273 272 267 261 256 254 254 248
152 155 154 149 164 171 182 186 198 220 240 255 259 261 264 268 272 267 269 265 266 276 282 285 283 283 293 300 300 298 297 297 300 303 305 306 299 291 284 283 283 282 280 282 277 277 279 281 280 278 277 276 275 274 273 273 274 273 260 258 258 257 258 258 264 266 272 265 262 259 263 258 270 260 277 279 277 258 262 263 260 251 249 248 247
138 144 140 149 158 169 184 186 210 223 234 246 258 261 263 268 274 266 262 268 274 276 283 285 286 296 300 301 300 300 299 300 305 306 305 305 296 292 293 292 291 291 293 299 297 290 280 270 270 269 267 266 267 263 264 266 267 270 268 264 262 251 257 262 265 272 273 263 260 250 259 266 261 259 257 273 272 273 247 254 261 294 288 273 240